| time (UTC) | temp F | wind direction | speed knots | gust knots | rain 1hr in | rain 24hr in | rain mn in | humidity % | barometer mb |
| 20260504205058 | 59 | 36 | 7.8 | 8.7 | 0.00 | 0.00 | 0.00 | 38 | 1004.8 |
| 20260504204556 | 60 | 61 | 7.8 | 12.2 | 0.00 | 0.00 | 0.00 | 37 | 1005.1 |
| 20260504204055 | 60 | 67 | 11.3 | 14.8 | 0.00 | 0.00 | 0.00 | 36 | 1005.0 |
| 20260504203553 | 61 | 57 | 9.6 | 13.0 | 0.00 | 0.00 | 0.00 | 36 | 1004.7 |
| 20260504203050 | 60 | 20 | 9.6 | 13.0 | 0.00 | 0.00 | 0.00 | 36 | 1004.7 |
| 20260504202545 | 60 | 80 | 13.0 | 16.5 | 0.00 | 0.00 | 0.00 | 36 | 1004.7 |
| 20260504202042 | 60 | 67 | 11.3 | 16.5 | 0.00 | 0.00 | 0.00 | 36 | 1004.7 |
| 20260504201540 | 60 | 62 | 13.9 | 18.2 | 0.00 | 0.00 | 0.00 | 36 | 1004.6 |
| 20260504201037 | 59 | 54 | 12.2 | 13.9 | 0.00 | 0.00 | 0.00 | 36 | 1004.6 |
| 20260504200533 | 59 | 37 | 8.7 | 12.2 | 0.00 | 0.00 | 0.00 | 37 | 1005.0 |
| 20260504200031 | 59 | 66 | 11.3 | 15.6 | 0.00 | 0.00 | 0.00 | 37 | 1005.2 |
| 20260504195526 | 58 | 57 | 11.3 | 13.9 | 0.00 | 0.00 | 0.00 | 38 | 1005.0 |
| 20260504195023 | 59 | 32 | 13.9 | 15.6 | 0.00 | 0.00 | 0.00 | 37 | 1005.4 |
| 20260504194520 | 59 | 80 | 9.6 | 15.6 | 0.00 | 0.00 | 0.00 | 36 | 1005.4 |
| 20260504194015 | 60 | 39 | 9.6 | 14.8 | 0.00 | 0.00 | 0.00 | 35 | 1005.3 |
| 20260504193512 | 59 | 65 | 7.0 | 9.6 | 0.00 | 0.00 | 0.00 | 35 | 1005.2 |
| 20260504193011 | 59 | 63 | 7.8 | 11.3 | 0.00 | 0.00 | 0.00 | 37 | 1005.3 |
| 20260504192509 | 60 | 53 | 10.4 | 14.8 | 0.00 | 0.00 | 0.00 | 36 | 1005.2 |
| 20260504192007 | 59 | 54 | 13.0 | 16.5 | 0.00 | 0.00 | 0.00 | 37 | 1005.1 |
| 20260504191504 | 59 | 56 | 8.7 | 13.9 | 0.00 | 0.00 | 0.00 | 37 | 1005.4 |
| 20260504191000 | 59 | 68 | 13.0 | 14.8 | 0.00 | 0.00 | 0.00 | 37 | 1005.4 |
| 20260504190455 | 60 | 40 | 12.2 | 15.6 | 0.00 | 0.00 | 0.00 | 36 | 1005.5 |
| 20260504185952 | 58 | 83 | 12.2 | 13.9 | 0.00 | 0.00 | 0.00 | 35 | 1005.8 |
| 20260504185449 | 59 | 53 | 10.4 | 14.8 | 0.00 | 0.00 | 0.00 | 37 | 1005.8 |
| 20260504184946 | 60 | 76 | 6.1 | 7.8 | 0.00 | 0.00 | 0.00 | 35 | 1005.8 |
| 20260504184441 | 59 | 50 | 7.8 | 13.9 | 0.00 | 0.00 | 0.00 | 37 | 1005.9 |
| 20260504183937 | 59 | 65 | 12.2 | 15.6 | 0.00 | 0.00 | 0.00 | 37 | 1005.5 |
| 20260504183435 | 59 | 81 | 8.7 | 13.9 | 0.00 | 0.00 | 0.00 | 36 | 1005.8 |
| 20260504182933 | 59 | 91 | 9.6 | 13.9 | 0.00 | 0.00 | 0.00 | 36 | 1005.5 |
| 20260504182429 | 57 | 79 | 11.3 | 13.9 | 0.00 | 0.00 | 0.00 | 37 | 1005.7 |
| 20260504181926 | 59 | 30 | 9.6 | 13.0 | 0.00 | 0.00 | 0.00 | 36 | 1006.0 |
| 20260504181423 | 59 | 61 | 13.0 | 16.5 | 0.00 | 0.00 | 0.00 | 35 | 1006.2 |
| 20260504180922 | 57 | 63 | 8.7 | 14.8 | 0.00 | 0.00 | 0.00 | 38 | 1006.1 |
| 20260504180421 | 58 | 53 | 3.5 | 7.8 | 0.00 | 0.00 | 0.00 | 38 | 1006.4 |
| 20260504175918 | 57 | 70 | 5.2 | 9.6 | 0.00 | 0.00 | 0.00 | 37 | 1006.4 |
| 20260504175415 | 58 | 64 | 11.3 | 13.9 | 0.00 | 0.00 | 0.00 | 38 | 1006.2 |
| 20260504174913 | 57 | 86 | 10.4 | 13.0 | 0.00 | 0.00 | 0.00 | 38 | 1006.2 |
| 20260504174410 | 57 | 104 | 4.3 | 18.2 | 0.00 | 0.00 | 0.00 | 38 | 1006.1 |
| 20260504173908 | 58 | 45 | 12.2 | 16.5 | 0.00 | 0.00 | 0.00 | 37 | 1006.1 |
| 20260504173404 | 57 | 87 | 13.0 | 15.6 | 0.00 | 0.00 | 0.00 | 38 | 1006.2 |
| 20260504172901 | 57 | 60 | 14.8 | 19.1 | 0.00 | 0.00 | 0.00 | 37 | 1006.4 |
| 20260504172357 | 56 | 59 | 13.0 | 15.6 | 0.00 | 0.00 | 0.00 | 38 | 1006.1 |
| 20260504171853 | 57 | 89 | 14.8 | 18.2 | 0.00 | 0.00 | 0.00 | 37 | 1006.2 |
| 20260504171351 | 56 | 89 | 14.8 | 21.7 | 0.00 | 0.00 | 0.00 | 39 | 1006.1 |
| 20260504170848 | 56 | 57 | 13.9 | 20.9 | 0.00 | 0.00 | 0.00 | 39 | 1006.1 |
| 20260504170344 | 57 | 79 | 11.3 | 13.9 | 0.00 | 0.00 | 0.00 | 38 | 1006.5 |
| 20260504160303 | 55 | 85 | 13.0 | 15.6 | 0.00 | 0.00 | 0.00 | 41 | 1005.8 |
| 20260504150728 | 55 | 73 | 10.4 | 12.2 | 0.00 | 0.00 | 0.00 | 41 | 1005.5 |
| 20260504150225 | 54 | 100 | 10.4 | 13.0 | 0.00 | 0.00 | 0.00 | 41 | 1005.5 |
| 20260504141154 | 54 | 304 | 1.7 | 3.5 | 0.00 | 0.00 | 0.00 | 39 | 1005.2 |
| 20260504140651 | 54 | 280 | 1.7 | 5.2 | 0.00 | 0.00 | 0.00 | 42 | 1005.4 |
| 20260504140146 | 52 | 347 | 5.2 | 7.8 | 0.00 | 0.00 | 0.00 | 43 | 1005.4 |
| 20260504130615 | 47 | 340 | 3.5 | 6.1 | 0.00 | 0.00 | 0.00 | 47 | 1004.7 |
| 20260504130112 | 47 | 288 | 7.0 | 11.3 | 0.00 | 0.00 | 0.00 | 47 | 1004.6 |
| 20260504110503 | 46 | 300 | 7.8 | 12.2 | 0.00 | 0.00 | 0.00 | 46 | 1004.0 |
| 20260504100425 | 44 | 316 | 11.3 | 13.0 | 0.00 | 0.00 | 0.00 | 50 | 1004.0 |
| 20260504081818 | 46 | 296 | 7.8 | 9.6 | 0.00 | 0.00 | 0.00 | 50 | 1004.6 |
| 20260504081314 | 46 | 287 | 8.7 | 9.6 | 0.00 | 0.00 | 0.00 | 49 | 1004.7 |
| 20260504080810 | 47 | 312 | 4.3 | 7.0 | 0.00 | 0.00 | 0.00 | 49 | 1004.7 |
| 20260504080308 | 48 | 313 | 5.2 | 8.7 | 0.00 | 0.00 | 0.00 | 48 | 1004.7 |
| 20260504070235 | 50 | 294 | 8.7 | 9.6 | 0.00 | 0.00 | 0.00 | 44 | 1005.1 |
| 20260504060155 | 51 | 347 | 7.0 | 8.7 | 0.00 | 0.00 | 0.00 | 54 | 1005.4 |
| 20260504050623 | 51 | 246 | 3.5 | 6.1 | 0.00 | 0.00 | 0.00 | 47 | 1005.9 |
| 20260504050121 | 51 | 296 | 6.1 | 7.8 | 0.00 | 0.00 | 0.00 | 46 | 1005.8 |
| 20260504045618 | 51 | 286 | 5.2 | 7.0 | 0.00 | 0.00 | 0.00 | 46 | 1005.9 |
| 20260504045112 | 51 | 235 | 2.6 | 6.1 | 0.00 | 0.00 | 0.00 | 48 | 1006.0 |
| 20260504044610 | 52 | 298 | 6.1 | 7.0 | 0.00 | 0.00 | 0.00 | 46 | 1005.9 |
| 20260504044107 | 52 | 300 | 6.1 | 7.8 | 0.00 | 0.00 | 0.00 | 45 | 1006.0 |
| 20260504043604 | 53 | 278 | 7.0 | 7.8 | 0.00 | 0.00 | 0.00 | 43 | 1005.9 |
| 20260504043101 | 56 | 285 | 3.5 | 3.5 | 0.00 | 0.00 | 0.00 | 39 | 1006.1 |
| 20260504042558 | 57 | 278 | 3.5 | 3.5 | 0.00 | 0.00 | 0.00 | 38 | 1006.0 |
| 20260504042055 | 58 | 295 | 2.6 | 2.6 | 0.00 | 0.00 | 0.00 | 37 | 1005.9 |
| 20260504041551 | 56 | 284 | 2.6 | 2.6 | 0.00 | 0.00 | 0.00 | 38 | 1005.9 |
| 20260504041047 | 56 | 272 | 2.6 | 2.6 | 0.00 | 0.00 | 0.00 | 39 | 1006.0 |
| 20260504040545 | 55 | 278 | 2.6 | 3.5 | 0.00 | 0.00 | 0.00 | 40 | 1005.7 |
| 20260504040041 | 56 | 277 | 1.7 | 2.6 | 0.00 | 0.00 | 0.00 | 39 | 1005.8 |
| 20260504035538 | 57 | 308 | 1.7 | 1.7 | 0.00 | 0.00 | 0.00 | 40 | 1005.9 |
| 20260504035034 | 58 | 342 | 1.7 | 1.7 | 0.00 | 0.00 | 0.00 | 37 | 1005.8 |
| 20260504034533 | 58 | 347 | 1.7 | 2.6 | 0.00 | 0.00 | 0.00 | 37 | 1005.7 |
| 20260504034029 | 57 | 336 | 2.6 | 2.6 | 0.00 | 0.00 | 0.00 | 39 | 1005.7 |
| 20260504033528 | 58 | 345 | 1.7 | 2.6 | 0.00 | 0.00 | 0.00 | 38 | 1006.0 |
| 20260504033024 | 58 | 359 | 1.7 | 2.6 | 0.00 | 0.00 | 0.00 | 37 | 1005.7 |
| 20260504032521 | 58 | 351 | 1.7 | 1.7 | 0.00 | 0.00 | 0.00 | 37 | 1005.8 |
| 20260504032018 | 59 | 357 | 2.6 | 2.6 | 0.00 | 0.00 | 0.00 | 36 | 1005.5 |
| 20260504031515 | 58 | 349 | 2.6 | 2.6 | 0.00 | 0.00 | 0.00 | 36 | 1005.5 |
| 20260504031011 | 58 | 352 | 1.7 | 1.7 | 0.00 | 0.00 | 0.00 | 37 | 1005.4 |
| 20260504030509 | 58 | 353 | 0.0 | 0.0 | 0.00 | 0.00 | 0.00 | 37 | 1005.5 |
| 20260504030004 | 58 | 6 | 0.0 | 0.9 | 0.00 | 0.00 | 0.00 | 39 | 1005.5 |
| 20260504025501 | 58 | 3 | 0.9 | 2.6 | 0.00 | 0.00 | 0.00 | 39 | 1005.4 |
| 20260504024958 | 58 | 14 | 3.5 | 3.5 | 0.00 | 0.00 | 0.00 | 40 | 1005.0 |
| 20260504024455 | 59 | 1 | 4.3 | 5.2 | 0.00 | 0.00 | 0.00 | 38 | 1005.0 |
| 20260504023952 | 59 | 2 | 3.5 | 6.1 | 0.00 | 0.00 | 0.00 | 37 | 1005.1 |
| 20260504023449 | 59 | 32 | 5.2 | 6.1 | 0.00 | 0.00 | 0.00 | 36 | 1005.1 |
| 20260504022944 | 59 | 23 | 3.5 | 6.1 | 0.00 | 0.00 | 0.00 | 37 | 1005.1 |
| 20260504022441 | 60 | 29 | 4.3 | 7.0 | 0.00 | 0.00 | 0.00 | 37 | 1005.0 |
| 20260504021937 | 60 | 44 | 4.3 | 6.1 | 0.00 | 0.00 | 0.00 | 36 | 1005.1 |
| 20260504021435 | 61 | 31 | 5.2 | 7.8 | 0.00 | 0.00 | 0.00 | 36 | 1004.8 |
| 20260504020932 | 61 | 25 | 5.2 | 8.7 | 0.00 | 0.00 | 0.00 | 35 | 1005.0 |
| 20260504020428 | 61 | 43 | 6.1 | 8.7 | 0.00 | 0.00 | 0.00 | 36 | 1005.0 |
| 20260504015925 | 62 | 48 | 6.1 | 7.8 | 0.00 | 0.00 | 0.00 | 35 | 1005.0 |
| 20260504015421 | 62 | 12 | 7.0 | 7.8 | 0.00 | 0.00 | 0.00 | 35 | 1004.8 |
| 20260504014917 | 63 | 40 | 7.0 | 8.7 | 0.00 | 0.00 | 0.00 | 34 | 1004.8 |
| 20260504014414 | 63 | 17 | 7.8 | 11.3 | 0.00 | 0.00 | 0.00 | 32 | 1004.7 |
| 20260504013910 | 64 | 18 | 6.1 | 7.8 | 0.00 | 0.00 | 0.00 | 34 | 1005.0 |
| 20260504013409 | 64 | 26 | 6.1 | 9.6 | 0.00 | 0.00 | 0.00 | 33 | 1004.6 |
| 20260504012905 | 65 | 48 | 7.8 | 8.7 | 0.00 | 0.00 | 0.00 | 32 | 1004.6 |
| 20260504012403 | 65 | 17 | 7.8 | 9.6 | 0.00 | 0.00 | 0.00 | 31 | 1004.6 |
| 20260504011900 | 66 | 18 | 7.8 | 11.3 | 0.00 | 0.00 | 0.00 | 31 | 1004.7 |
| 20260504011357 | 66 | 39 | 8.7 | 9.6 | 0.00 | 0.00 | 0.00 | 31 | 1005.0 |
| 20260504010852 | 67 | 39 | 6.1 | 8.7 | 0.00 | 0.00 | 0.00 | 31 | 1004.8 |
| 20260504010348 | 67 | 42 | 10.4 | 13.0 | 0.00 | 0.00 | 0.00 | 29 | 1004.8 |
| 20260504005845 | 67 | 23 | 12.2 | 16.5 | 0.00 | 0.00 | 0.00 | 29 | 1004.7 |
| 20260504005342 | 67 | 14 | 12.2 | 20.0 | 0.00 | 0.00 | 0.00 | 25 | 1005.0 |
| 20260504004839 | 71 | 3 | 7.8 | 9.6 | 0.00 | 0.00 | 0.00 | 20 | 1004.7 |
| 20260504004337 | 70 | 3 | 3.5 | 5.2 | 0.00 | 0.00 | 0.00 | 21 | 1004.8 |
| 20260504003833 | 70 | 7 | 2.6 | 3.5 | 0.00 | 0.00 | 0.00 | 19 | 1004.6 |
| 20260504003330 | 70 | 326 | 2.6 | 5.2 | 0.00 | 0.00 | 0.00 | 19 | 1005.1 |
| 20260504002827 | 70 | 341 | 2.6 | 6.1 | 0.00 | 0.00 | 0.00 | 17 | 1004.7 |
| 20260504002324 | 68 | 326 | 1.7 | 7.8 | 0.00 | 0.00 | 0.00 | 20 | 1004.7 |
| 20260504001821 | 68 | 0 | 4.3 | 6.1 | 0.00 | 0.00 | 0.00 | 18 | 1004.8 |
| 20260504001318 | 68 | 9 | 5.2 | 7.0 | 0.00 | 0.00 | 0.00 | 22 | 1005.1 |
| 20260504000815 | 68 | 354 | 6.1 | 8.7 | 0.00 | 0.00 | 0.00 | 20 | 1005.1 |
| 20260504000312 | 68 | 18 | 7.0 | 9.6 | 0.00 | 0.00 | 0.00 | 21 | 1005.1 |
| 20260503235810 | 69 | 25 | 7.0 | 9.6 | 0.00 | 0.00 | 0.00 | 21 | 1004.8 |
| 20260503235307 | 70 | 354 | 8.7 | 18.2 | 0.00 | 0.00 | 0.00 | 19 | 1004.8 |
| 20260503234804 | 70 | 348 | 7.8 | 9.6 | 0.00 | 0.00 | 0.00 | 22 | 1005.0 |
| 20260503234257 | 69 | 355 | 10.4 | 12.2 | 0.00 | 0.00 | 0.00 | 25 | 1004.8 |
| 20260503233754 | 70 | 19 | 7.0 | 16.5 | 0.00 | 0.00 | 0.00 | 22 | 1005.1 |
| 20260503233249 | 72 | 10 | 5.2 | 7.8 | 0.00 | 0.00 | 0.00 | 18 | 1004.8 |
| 20260503232747 | 72 | 310 | 2.6 | 5.2 | 0.00 | 0.00 | 0.00 | 19 | 1004.8 |
| 20260503232244 | 70 | 358 | 2.6 | 6.1 | 0.00 | 0.00 | 0.00 | 20 | 1005.0 |
| 20260503231742 | 70 | 22 | 3.5 | 6.1 | 0.00 | 0.00 | 0.00 | 20 | 1005.1 |
| 20260503231239 | 68 | 21 | 3.5 | 7.8 | 0.00 | 0.00 | 0.00 | 22 | 1005.1 |
| 20260503230734 | 69 | 3 | 5.2 | 6.1 | 0.00 | 0.00 | 0.00 | 22 | 1005.2 |
| 20260503230231 | 69 | 339 | 5.2 | 7.8 | 0.00 | 0.00 | 0.00 | 18 | 1005.2 |
| 20260503225724 | 68 | 30 | 5.2 | 9.6 | 0.00 | 0.00 | 0.00 | 21 | 1005.2 |
| 20260503225224 | 68 | 5 | 9.6 | 13.9 | 0.00 | 0.00 | 0.00 | 21 | 1005.4 |
| 20260503224721 | 69 | 351 | 4.3 | 16.5 | 0.00 | 0.00 | 0.00 | 18 | 1005.2 |
| 20260503224219 | 69 | 321 | 7.0 | 8.7 | 0.00 | 0.00 | 0.00 | 17 | 1005.3 |
| 20260503223716 | 70 | 271 | 6.1 | 11.3 | 0.00 | 0.00 | 0.00 | 17 | 1005.3 |
| 20260503223213 | 70 | 334 | 1.7 | 9.6 | 0.00 | 0.00 | 0.00 | 18 | 1005.2 |
| 20260503222710 | 70 | 334 | 5.2 | 7.0 | 0.00 | 0.00 | 0.00 | 19 | 1005.4 |
| 20260503222208 | 72 | 10 | 2.6 | 6.1 | 0.00 | 0.00 | 0.00 | 17 | 1005.4 |
| 20260503221706 | 71 | 334 | 0.0 | 2.6 | 0.00 | 0.00 | 0.00 | 19 | 1005.5 |
| 20260503221203 | 71 | 21 | 0.9 | 3.5 | 0.00 | 0.00 | 0.00 | 19 | 1005.3 |
| 20260503220700 | 72 | 338 | 0.0 | 1.7 | 0.00 | 0.00 | 0.00 | 17 | 1006.0 |
| 20260503220156 | 69 | 14 | 0.9 | 5.2 | 0.00 | 0.00 | 0.00 | 19 | 1005.8 |
| 20260503215653 | 69 | 326 | 1.7 | 3.5 | 0.00 | 0.00 | 0.00 | 20 | 1006.1 |
| 20260503215149 | 68 | 24 | 1.7 | 3.5 | 0.00 | 0.00 | 0.00 | 22 | 1006.0 |
| 20260503214648 | 69 | 356 | 3.5 | 3.5 | 0.00 | 0.00 | 0.00 | 21 | 1006.1 |
| 20260503214143 | 69 | 20 | 3.5 | 5.2 | 0.00 | 0.00 | 0.00 | 21 | 1006.5 |
| 20260503213638 | 69 | 358 | 5.2 | 7.0 | 0.00 | 0.00 | 0.00 | 24 | 1006.5 |
| 20260503213134 | 68 | 344 | 1.7 | 7.0 | 0.00 | 0.00 | 0.00 | 22 | 1006.4 |
| 20260503212631 | 67 | 22 | 6.1 | 9.6 | 0.00 | 0.00 | 0.00 | 22 | 1006.4 |
| 20260503212129 | 68 | 21 | 7.0 | 7.8 | 0.00 | 0.00 | 0.00 | 23 | 1006.4 |
| 20260503211626 | 69 | 2 | 5.2 | 6.1 | 0.00 | 0.00 | 0.00 | 21 | 1006.4 |
| 20260503211121 | 69 | 4 | 4.3 | 6.1 | 0.00 | 0.00 | 0.00 | 21 | 1006.5 |
| 20260503210618 | 68 | 40 | 7.0 | 7.0 | 0.00 | 0.00 | 0.00 | 21 | 1006.6 |
| 20260503210115 | 69 | 23 | 5.2 | 7.8 | 0.00 | 0.00 | 0.00 | 21 | 1006.6 |
| 20260503205611 | 70 | 29 | 6.1 | 7.0 | 0.00 | 0.00 | 0.00 | 21 | 1007.1 |